Regional Weather Roundup
Issued by NWS

Home | Current Version | Previous Version | Graphics & Text | Print | Product List | Glossary On
Versions: 1 2 3 4 5 6 7 8 9 10 11 12 13 14 15 16 17 18 19 20 21 22 23 24 25 26 27 28 29 30 31 32 33 34 35 36 37 38 39 40 41 42 43 44 45 46 47 48 49 50
000
ASUS43 KDMX 160007
RWRIA

WEATHER ROUNDUP FOR IOWA
NATIONAL WEATHER SERVICE DES MOINES IA
700 PM CDT MON SEP 15 2014

NOTE: "FAIR" INDICATES FEW OR NO CLOUDS BELOW 12,000 FEET WITH NO
SIGNIFICANT WEATHER AND/OR OBSTRUCTIONS TO VISIBILITY.

* - THESE STATIONS ARE NOT NWS STATIONS...THUS NOT UNDER NWS
QUALITY CONTROL.  THEY ALSO DO NOT REPORT WEATHER SUCH
AS PRECIPITATION OR FOG.

IAZ001>003-012>014-020>022-031>034-043>046-160100-
   NORTHWEST IOWA

CITY           SKY/WX    TMP DP  RH WIND       PRES   REMARKS
CARROLL *      CLEAR     55  48  76 CALM      30.22F
CHEROKEE *     CLEAR     58  43  56 CALM      30.23S
DENISON *      CLEAR     57  45  62 N3        30.22R
LE MARS *      CLEAR     59  45  58 NW3       30.24S
ORANGE CITY *  CLEAR     59  45  58 CALM      30.24S
SHELDON *      CLEAR     57  45  62 N3        30.22S
SIOUX CITY     CLEAR     62  41  46 NE6       30.24S
6HR MIN TEMP:  59; 6HR MAX TEMP:  65;

SPENCER        CLEAR     59  41  51 N5        30.23S
6HR MIN TEMP:  59; 6HR MAX TEMP:  63;

STORM LAKE *   PTCLDY    55  46  71 N5        30.23S
$$

IAZ055>058-069>071-079>083-090>094-160100-
   SOUTHWEST IOWA

CITY           SKY/WX    TMP DP  RH WIND       PRES   REMARKS
ATLANTIC *     PTCLDY    57  46  67 N6        30.23R
AUDUBON *      CLEAR     57  50  77 CALM      30.24S
CLARINDA *     PTCLDY    57  48  72 CALM      30.25R
COUNCIL BLFS * CLOUDY    59  48  67 NE7       30.23S
CRESTON *      MOCLDY    57  46  67 N12       30.23S
HARLAN  *      CLEAR     54  48  82 NW3       30.27S
LAMONI         CLOUDY    59  49  69 N13       30.21R
6HR MIN TEMP:  59; 6HR MAX TEMP:  64;

SHENANDOAH *   PTCLDY    59  46  63 NE8       30.24S
$$

IAZ047>049-059>061-072>074-084-160100-
   CENTRAL IOWA

CITY           SKY/WX    TMP DP  RH WIND       PRES   REMARKS
AMES           PTCLDY    57  46  66 N8        30.21S
6HR MIN TEMP:  57; 6HR MAX TEMP:  62;

ANKENY *       CLOUDY    59  48  67 N7        30.21S
CHARITON *     CLOUDY    57  50  77 N9G15     30.21R
DES MOINES     MOCLDY    60  46  59 N5        30.21R
6HR MIN TEMP:  58; 6HR MAX TEMP:  65;

GRINNELL*      CLOUDY    57  48  72 N3        30.21R
KNOXVILLE *    PTCLDY    57  48  72 N6        30.20R
MARSHALLTOWN   CLEAR     56  46  69 N7        30.20S
6HR MIN TEMP:  54; 6HR MAX TEMP:  61;

PELLA *        CLOUDY    57  50  76 N3        30.22R
PERRY *          N/A     57  46  67 NE5       30.22F
$$

IAZ004>006-015-016-023>025-035-036-160100-
   NORTH CENTRAL IOWA

CITY           SKY/WX    TMP DP  RH WIND       PRES   REMARKS
ALGONA *       CLEAR     57  41  54 CALM      30.23S
CLARION *        N/A     57  43  58 CALM      30.22R
ESTHERVILLE    CLEAR     56  41  57 N5        30.22S
6HR MIN TEMP:  56; 6HR MAX TEMP:  62;

FORT DODGE *   MOCLDY    57  45  62 CALM      30.23S
MASON CITY     PTCLDY    55  43  63 NW7       30.22S
6HR MIN TEMP:  55; 6HR MAX TEMP:  62;

FOREST CITY *  CLEAR     54  43  66 N5        30.21S
IOWA FALLS *     N/A     54  46  76 NW5       30.22S
$$

IAZ007>011-017>019-026>030-037>042-050>054-066-160100-
   NORTHEAST IOWA

CITY           SKY/WX    TMP DP  RH WIND       PRES   REMARKS
CEDAR RAPIDS   CLOUDY    57  49  74 N8        30.18R
6HR MIN TEMP:  55; 6HR MAX TEMP:  60;

CHARLES CITY * CLOUDY    57  46  67 CALM      30.21R
CLINTON *      CLEAR     54  46  76 N6        30.20R
DECORAH *      PTCLDY    55  46  71 CALM      30.18R
DUBUQUE        CLEAR     52  48  86 N7        30.18R
6HR MIN TEMP:  50; 6HR MAX TEMP:  56; 6HR PCP:  0.07;

MONTICELLO *   PTCLDY    55  48  76 CALM      30.18R
OELWEIN *      CLOUDY    57  46  67 N5        30.20R
WATERLOO       CLEAR     54  45  71 NW7       30.19R
6HR MIN TEMP:  54; 6HR MAX TEMP:  62;

$$

IAZ064-065-067-068-078-160100-
   EAST CENTRAL IOWA

CITY           SKY/WX    TMP DP  RH WIND       PRES   REMARKS
DAVENPORT      MOCLDY    55  47  74 N9        30.18R
6HR MIN TEMP:  55; 6HR MAX TEMP:  67;

IOWA CITY      MOCLDY    58  49  72 N9        30.19R
6HR MIN TEMP:  58; 6HR MAX TEMP:  68;

MT. PLEASANT * CLOUDY    59  49  69 N9        30.18R
MUSCATINE *    CLOUDY    57  50  77 NE8       30.18R
QUAD CITIES    CLOUDY    58  49  72 N9        30.16R
6HR MIN TEMP:  58; 6HR MAX TEMP:  69; 6HR PCP: TRACE;

$$

IAZ062-063-075>077-085>089-095>099-160100-
   SOUTHEAST IOWA

CITY           SKY/WX    TMP DP  RH WIND       PRES   REMARKS
BURLINGTON     CLOUDY    59  53  80 N10       30.15R
6HR MIN TEMP:  59; 6HR MAX TEMP:  68; 6HR PCP: TRACE;

FAIRFIELD *    CLOUDY    57  50  77 N6        30.18S
FORT MADISON * CLOUDY    61  55  82 N8        30.16R
KEOKUK *       CLOUDY    61  55  82 N8G14     30.14R
OSKALOOSA *    MOCLDY    56  51  81 N7        30.20R
CENTERVILLE *  CLOUDY    57  54  88 N6        30.21R
OTTUMWA        CLOUDY    58  48  69 N13       30.19R
6HR MIN TEMP:  58; 6HR MAX TEMP:  64; 6HR PCP: TRACE;

WASHINGTON *   CLOUDY    57  52  82 N8        30.18R
$$

ABBREVIATIONS USED IN REMARKS
   TC - TEMPERATURES IN CELSIUS
  WCI - WIND CHILL INDEX
   HX - HEAT INDEX
  VSB - VISIBILITY
$$




USA.gov is the U.S. government's official web portal to all federal, state and local government web resources and services.